GTI44 YMML-YSSY

Flight info

Callsign GTI44
Flight time 1h 4m
Altitude 35000
Route DCT ML H129 DOSEL Y59 RIVET RIVET4
Aircraft B77L/H-SDE1E2E3FGHIJ2J3J4J5M1RWXY/LB1D1

Departure

Time 2026-05-04 10:06
Airport Melbourne Airport (YMML)

Arrival

Time 2026-05-04 11:10
Airport Sydney Kingsford Smith International Airport (YSSY)
Time Latitude Longitude Altitude Speed Heading
2026-05-04 09:43 -37.67818 144.84789 351 ft 0 kts 172°
2026-05-04 09:56 -37.67811 144.84788 358 ft 3 kts 172°
2026-05-04 09:56 -37.67792 144.84784 360 ft 3 kts 172°
2026-05-04 09:56 -37.67774 144.84781 361 ft 3 kts 174°
2026-05-04 09:56 -37.67755 144.84784 362 ft 3 kts 218°
2026-05-04 09:57 -37.67743 144.84802 362 ft 3 kts 260°
2026-05-04 09:57 -37.67743 144.84805 362 ft 0 kts 262°
2026-05-04 10:00 -37.67852 144.84293 357 ft 18 kts 262°
2026-05-04 10:00 -37.67870 144.84137 362 ft 10 kts 262°
2026-05-04 10:02 -37.67870 144.84135 362 ft 0 kts 262°
2026-05-04 10:04 -37.67871 144.84126 363 ft 0 kts 262°
2026-05-04 10:05 -37.67879 144.84031 360 ft 25 kts 274°
2026-05-04 10:05 -37.67622 144.83915 366 ft 79 kts 356°
2026-05-04 10:05 -37.66721 144.83756 502 ft 174 kts 353°
2026-05-04 10:06 -37.65429 144.83505 1446 ft 196 kts 348°
2026-05-04 10:06 -37.64077 144.83226 2402 ft 202 kts 345°
2026-05-04 10:06 -37.62609 144.82928 2869 ft 223 kts 345°
2026-05-04 10:08 -37.52547 144.86310 7381 ft 279 kts 20°
2026-05-04 10:08 -37.50780 144.87362 8217 ft 286 kts 20°
2026-05-04 10:08 -37.48987 144.88450 8983 ft 291 kts 20°
2026-05-04 10:08 -37.47143 144.89578 9854 ft 294 kts 21°
2026-05-04 10:09 -37.45279 144.90719 10631 ft 299 kts 21°
2026-05-04 10:09 -37.43459 144.92049 11275 ft 316 kts 34°
2026-05-04 10:09 -37.41910 144.94204 11447 ft 345 kts 51°
2026-05-04 10:09 -37.40505 144.96771 11819 ft 369 kts 53°
2026-05-04 10:10 -37.39030 144.99511 12429 ft 386 kts 53°
2026-05-04 10:10 -37.37520 145.02307 13321 ft 394 kts 52°
2026-05-04 10:10 -37.35958 145.05168 14286 ft 398 kts 52°
2026-05-04 10:10 -37.34367 145.08044 15270 ft 402 kts 52°
2026-05-04 10:11 -37.32748 145.10938 16214 ft 406 kts 51°
2026-05-04 10:11 -37.31103 145.13855 17136 ft 411 kts 51°
2026-05-04 10:11 -37.29453 145.16766 18037 ft 416 kts 51°
2026-05-04 10:11 -37.27753 145.19755 18844 ft 421 kts 51°
2026-05-04 10:12 -37.26043 145.22761 19663 ft 425 kts 51°
2026-05-04 10:12 -37.24318 145.25791 20488 ft 428 kts 51°
2026-05-04 10:12 -37.22573 145.28855 21276 ft 432 kts 50°
2026-05-04 10:12 -37.20831 145.31911 22056 ft 436 kts 50°
2026-05-04 10:13 -37.19058 145.35018 22839 ft 441 kts 50°
2026-05-04 10:13 -37.17255 145.38173 23590 ft 445 kts 50°
2026-05-04 10:13 -37.15440 145.41345 24203 ft 449 kts 50°
2026-05-04 10:13 -37.13602 145.44548 24766 ft 455 kts 49°
2026-05-04 10:14 -37.11735 145.47798 25313 ft 461 kts 49°
2026-05-04 10:14 -37.09878 145.51027 25886 ft 465 kts 49°
2026-05-04 10:16 -36.96869 145.73602 29525 ft 496 kts 45°
2026-05-04 10:16 -36.94842 145.77107 30046 ft 499 kts 45°
2026-05-04 10:16 -36.92798 145.80640 30484 ft 500 kts 44°
2026-05-04 10:16 -36.90763 145.84161 31082 ft 499 kts 45°
2026-05-04 10:17 -36.88728 145.87680 31589 ft 500 kts 45°
2026-05-04 10:17 -36.86705 145.91166 32002 ft 502 kts 45°
2026-05-04 10:19 -36.72345 146.15799 35027 ft 505 kts 46°
2026-05-04 10:19 -36.70270 146.19334 35036 ft 507 kts 46°
2026-05-04 10:19 -36.66120 146.26418 35029 ft 501 kts 46°
2026-05-04 10:20 -36.62038 146.33374 35000 ft 498 kts 45°
2026-05-04 10:20 -36.57936 146.40338 35035 ft 498 kts 45°
2026-05-04 10:21 -36.53826 146.47298 35048 ft 500 kts 45°
2026-05-04 10:21 -36.49715 146.54247 35046 ft 502 kts 45°
2026-05-04 10:22 -36.43474 146.64777 35048 ft 505 kts 45°
2026-05-04 10:23 -36.39316 146.71775 35051 ft 506 kts 45°
2026-05-04 10:25 -36.22535 146.99877 35047 ft 505 kts 45°
2026-05-04 10:25 -36.18366 147.06822 35056 ft 504 kts 45°
2026-05-04 10:26 -36.14177 147.13786 35047 ft 502 kts 45°
2026-05-04 10:26 -36.10020 147.20684 35056 ft 501 kts 45°
2026-05-04 10:27 -36.05847 147.27597 35055 ft 499 kts 45°
2026-05-04 10:27 -36.01706 147.34444 35064 ft 499 kts 45°
2026-05-04 10:28 -35.97538 147.41322 35065 ft 499 kts 45°
2026-05-04 10:28 -35.93395 147.48144 35074 ft 498 kts 45°
2026-05-04 10:29 -35.89231 147.54988 35083 ft 498 kts 44°
2026-05-04 10:29 -35.85062 147.61830 35078 ft 499 kts 44°
2026-05-04 10:30 -35.80887 147.68661 35098 ft 498 kts 44°
2026-05-04 10:30 -35.76737 147.75435 35099 ft 499 kts 44°
2026-05-04 10:31 -35.72546 147.82264 35098 ft 500 kts 44°
2026-05-04 10:32 -35.57865 148.06094 35107 ft 500 kts 44°
2026-05-04 10:33 -35.53636 148.12925 35096 ft 501 kts 44°
2026-05-04 10:33 -35.49405 148.19751 35089 ft 500 kts 43°
2026-05-04 10:34 -35.45215 148.26499 35096 ft 500 kts 43°
2026-05-04 10:34 -35.40990 148.33284 35104 ft 500 kts 43°
2026-05-04 10:35 -35.36753 148.40056 35110 ft 501 kts 43°
2026-05-04 10:35 -35.32551 148.46772 35069 ft 494 kts 43°
2026-05-04 10:36 -35.30482 148.50086 34992 ft 483 kts 43°
2026-05-04 10:36 -35.28460 148.53322 34896 ft 474 kts 43°
2026-05-04 10:36 -35.26458 148.56517 34689 ft 469 kts 42°
2026-05-04 10:36 -35.24487 148.59648 34404 ft 467 kts 42°
2026-05-04 10:37 -35.22502 148.62795 34054 ft 465 kts 42°
2026-05-04 10:37 -35.20524 148.65927 33650 ft 463 kts 42°
2026-05-04 10:37 -35.18576 148.69010 33324 ft 460 kts 42°
2026-05-04 10:37 -35.16622 148.72109 33046 ft 457 kts 42°
2026-05-04 10:39 -35.05247 148.90087 31268 ft 438 kts 42°
2026-05-04 10:39 -35.03380 148.93026 30968 ft 436 kts 42°
2026-05-04 10:39 -35.01525 148.95948 30685 ft 433 kts 42°
2026-05-04 10:40 -34.99679 148.98851 30438 ft 430 kts 42°
2026-05-04 10:40 -34.97877 149.01685 30174 ft 427 kts 42°
2026-05-04 10:40 -34.96058 149.04540 29884 ft 423 kts 42°
2026-05-04 10:40 -34.94262 149.07363 29593 ft 417 kts 42°
2026-05-04 10:41 -34.92505 149.10118 29178 ft 414 kts 42°
2026-05-04 10:41 -34.90739 149.12882 28676 ft 413 kts 42°
2026-05-04 10:41 -34.88972 149.15643 28209 ft 411 kts 42°
2026-05-04 10:41 -34.87217 149.18389 27856 ft 407 kts 42°
2026-05-04 10:42 -34.85491 149.21092 27460 ft 403 kts 42°
2026-05-04 10:42 -34.83773 149.23776 27020 ft 400 kts 42°
2026-05-04 10:42 -34.82059 149.26449 26564 ft 398 kts 42°
2026-05-04 10:42 -34.80376 149.29073 26169 ft 395 kts 42°
2026-05-04 10:43 -34.78691 149.31700 25783 ft 392 kts 42°
2026-05-04 10:44 -34.68515 149.51513 24528 ft 396 kts 52°
2026-05-04 10:45 -34.67236 149.54480 24188 ft 396 kts 52°
2026-05-04 10:45 -34.65968 149.57401 23878 ft 394 kts 52°
2026-05-04 10:45 -34.64687 149.60338 23573 ft 392 kts 52°
2026-05-04 10:45 -34.63412 149.63256 23270 ft 389 kts 52°
2026-05-04 10:46 -34.62145 149.66151 22963 ft 386 kts 52°
2026-05-04 10:46 -34.60881 149.69032 22613 ft 385 kts 52°
2026-05-04 10:46 -34.59619 149.71906 22266 ft 383 kts 53°
2026-05-04 10:46 -34.58369 149.74753 21957 ft 381 kts 53°
2026-05-04 10:47 -34.57141 149.77547 21668 ft 379 kts 53°
2026-05-04 10:47 -34.55886 149.80400 21383 ft 377 kts 53°
2026-05-04 10:47 -34.54668 149.83167 21106 ft 375 kts 53°
2026-05-04 10:47 -34.53440 149.85955 20813 ft 373 kts 53°
2026-05-04 10:49 -34.45804 150.05614 18957 ft 365 kts 59°
2026-05-04 10:49 -34.44790 150.08432 18788 ft 362 kts 59°
2026-05-04 10:50 -34.43782 150.11219 18541 ft 360 kts 59°
2026-05-04 10:51 -34.36784 150.30337 16688 ft 350 kts 58°
2026-05-04 10:52 -34.35793 150.33029 16437 ft 349 kts 59°
2026-05-04 10:52 -34.34806 150.35713 16162 ft 347 kts 59°
2026-05-04 10:52 -34.33836 150.38350 15847 ft 344 kts 59°
2026-05-04 10:54 -34.27794 150.54726 13551 ft 288 kts 58°
2026-05-04 10:54 -34.26978 150.56925 13204 ft 284 kts 58°
2026-05-04 10:56 -34.21588 150.71429 11195 ft 263 kts 59°
2026-05-04 10:56 -34.20842 150.73433 10876 ft 266 kts 59°
2026-05-04 10:56 -34.20077 150.75481 10557 ft 269 kts 59°
2026-05-04 10:57 -34.19312 150.77533 10365 ft 264 kts 59°
2026-05-04 10:57 -34.18570 150.79530 10211 ft 257 kts 59°
2026-05-04 10:57 -34.18090 150.81571 10084 ft 263 kts 82°
2026-05-04 10:57 -34.18384 150.83829 9954 ft 279 kts 101°
2026-05-04 10:58 -34.18942 150.86105 9643 ft 284 kts 102°
2026-05-04 10:58 -34.19508 150.88384 9473 ft 278 kts 102°
2026-05-04 10:58 -34.20061 150.90581 9268 ft 270 kts 103°
2026-05-04 10:58 -34.20594 150.92667 9203 ft 255 kts 103°
2026-05-04 10:59 -34.21123 150.94721 9130 ft 256 kts 103°
2026-05-04 10:59 -34.21649 150.96782 8981 ft 253 kts 103°
2026-05-04 10:59 -34.22158 150.98765 8989 ft 245 kts 103°
2026-05-04 10:59 -34.22668 151.00764 8613 ft 259 kts 103°
2026-05-04 11:00 -34.23201 151.02907 7920 ft 270 kts 103°
2026-05-04 11:01 -34.23730 151.16196 5125 ft 230 kts 53°
2026-05-04 11:02 -34.22660 151.18376 4561 ft 225 kts 53°
2026-05-04 11:02 -34.22132 151.19435 4384 ft 219 kts 53°
2026-05-04 11:05 -34.05934 151.20604 1910 ft 138 kts 346°
2026-05-04 11:06 -34.05001 151.20356 1732 ft 137 kts 346°
2026-05-04 11:06 -34.04076 151.20110 1524 ft 134 kts 346°
2026-05-04 11:06 -34.03161 151.19868 1388 ft 139 kts 347°
2026-05-04 11:06 -34.02230 151.19622 1177 ft 132 kts 347°
2026-05-04 11:08 -33.95729 151.17880 35 ft 132 kts 349°
2026-05-04 11:10 -33.94108 151.17268 26 ft 0 kts 332°
2026-05-04 11:12 -33.93605 151.17130 28 ft 15 kts 348°
2026-05-04 11:12 -33.93534 151.17112 28 ft 12 kts 348°
2026-05-04 11:12 -33.93441 151.17088 28 ft 15 kts 347°
2026-05-04 11:12 -33.93329 151.17044 28 ft 18 kts 330°
2026-05-04 11:13 -33.93216 151.16955 28 ft 20 kts 338°
2026-05-04 11:13 -33.93167 151.16889 28 ft 9 kts 263°
2026-05-04 11:13 -33.93177 151.16826 29 ft 0 kts 256°